Location: Borealis Mine
(38.3824°N, 118.7610°W)
Time: 17:52:19
(UTC+00:00)

Cosmos 2237 - Pass Details

Date: 18 September 2020
Orbit: 848 x 853 km, 70.8° (Epoch: 19 October)

Event Time Altitude Azimuth Distance (km) Brightness Sun altitude
Rises 13:03:25 0° 202° (SSW) 3,405 7.0 -7.9°
Reaches altitude 10° 13:05:51 10° 203° (SSW) 2,472 6.3 -7.5°
Maximum altitude 13:11:33 86° 292° (WNW) 859 4.3 -6.4°
Drops below altitude 10° 13:17:16 10° 22° (NNE) 2,485 7.1 -5.2°
Sets 13:19:44 0° 23° (NNE) 3,424 7.8 -4.8°
